User: anonymous   Login
Location: Unspecified
(0.0000°N, 0.0000°E)
Time: 20:12:25
(UTC+00:00)
Language:

APRIZESAT 8 - Orbit

View from above orbital plane
View from above orbital plane
View from above satellite
View from above satellite

Ground track
Ground track

The orbit data is extracted from the following two-line orbital elements,

1 39425U 13066K   19341.50577797  .00000046  00000-0  12201-4 0  9994
2 39425  97.5524 346.8487 0051793 184.6047 175.4697 14.81145248326606
Epoch (UTC): 07 December 2019 12:08:19
Eccentricity: 0.0051793
inclination: 97.5524°
perigee height: 589 km
apogee height: 662 km
right ascension of ascending node: 346.8487°
argument of perigee: 184.6047°
revolutions per day: 14.81145248
mean anomaly at epoch: 175.4697°
orbit number at epoch: 32660

The dashed part of the orbit path shows where the satellite is in the earth's shadow,  

DLR